This is the latest recevied weather packets stored in our database for station/object OK1TBM-13. If no packets are shown the sender has not sent any weather packets the latest 10 day(s).
| Time | Temp. | Humidity | Pressure | Rain* | Wind** | Luminosity | Snow |
|---|---|---|---|---|---|---|---|
| 1787926201 | 31.67° C | 37% | 1011.2 hPa | 0 mm | - | 434 W/m² | - |
| 1787925900 | 31.67° C | 37% | 1011.2 hPa | 0 mm | - | 386 W/m² | - |
| 1787925601 | 32.22° C | 38% | 1011.2 hPa | 0 mm | - | 454 W/m² | - |
| 1787925301 | 31.67° C | 38% | 1011.2 hPa | 0 mm | - | 465 W/m² | - |
| 1787925001 | 31.11° C | 38% | 1011.2 hPa | 0 mm | - | 443 W/m² | - |
| 1787924701 | 31.67° C | 37% | 1011.5 hPa | 0 mm | - | 410 W/m² | - |
| 1787924101 | 32.22° C | 37% | 1011.2 hPa | 0 mm | - | 496 W/m² | - |
| 1787923501 | 31.67° C | 37% | 1011.5 hPa | 0 mm | - | 550 W/m² | - |
| 1787923201 | 32.22° C | 36% | 1011.5 hPa | 0 mm | - | 564 W/m² | - |
| 1787922301 | 31.11° C | 38% | 1011.2 hPa | 0 mm | - | 474 W/m² | - |
| 1787922000 | 30.56° C | 39% | 1011.2 hPa | 0 mm | - | 447 W/m² | - |
| 1787921707 | 30.56° C | 38% | 1011.2 hPa | 0 mm | - | 471 W/m² | - |
| 1787921400 | 31.11° C | 38% | 1011.2 hPa | 0 mm | - | 466 W/m² | - |
| 1787921107 | 31.67° C | 38% | 1011.2 hPa | 0 mm | - | 554 W/m² | - |
| 1787920800 | 31.11° C | 38% | 1011.2 hPa | 0 mm | - | 601 W/m² | - |
| 1787920501 | 30.56° C | 39% | 1011.2 hPa | 0 mm | - | 596 W/m² | - |
| 1787920201 | 30.56° C | 39% | 1011.2 hPa | 0 mm | - | 497 W/m² | - |
| 1787919600 | 30.56° C | 39% | 1011.5 hPa | 0 mm | - | 612 W/m² | - |
| 1787919301 | 30.56° C | 39% | 1011.5 hPa | 0 mm | - | 636 W/m² | - |
| 1787919001 | 30° C | 39% | 1011.5 hPa | 0 mm | - | 550 W/m² | - |
| 1787918701 | 30° C | 39% | 1011.5 hPa | 0 mm | - | 550 W/m² | - |
| 1787918401 | 30.56° C | 39% | 1011.5 hPa | 0 mm | - | 608 W/m² | - |
| 1787918101 | 30.56° C | 38% | 1011.5 hPa | 0 mm | - | 645 W/m² | - |
| 1787917801 | 30.56° C | 39% | 1011.5 hPa | 0 mm | - | 672 W/m² | - |
| 1787917200 | 30° C | 40% | 1011.5 hPa | 0 mm | - | 664 W/m² | - |
* Rain latest hour (hover to see other rain measurements)
** Current wind speed in m/s (hover to see current wind gust speed)